GFSWCAN_500_spd_273.txt.gz
Wind_Speed
81 78 75 72 71 68 63 60 56 52 52 51 49 46 47 45 45 46 43 43 42 41 37 35 32 33 35 37 38 41 45 46 49 53 52 50 53 51 49 48 47 46 44 39 37 33 27 26 24 22 20 19 19 18
74 73 77 75 73 70 67 65 60 57 57 56 53 50 48 46 46 47 45 45 45 44 40 38 34 33 35 36 38 41 45 46 50 53 56 52 55 55 51 50 49 50 46 42 39 32 31 28 28 25 23 20 20 19
64 64 65 66 67 67 67 66 62 61 61 59 55 50 47 45 45 45 43 45 48 47 43 40 34 36 37 38 39 39 41 47 50 52 55 55 57 57 56 51 50 51 48 49 44 37 34 30 29 27 25 23 21 21
60 60 60 63 63 63 63 62 63 63 63 59 52 48 46 44 44 45 44 41 42 41 44 37 38 36 37 39 40 38 38 40 49 53 52 51 46 59 59 54 54 52 53 51 48 39 37 36 33 30 26 26 24 22
49 45 56 58 57 58 61 62 61 61 59 55 52 47 46 45 41 43 41 39 37 39 41 41 41 37 36 38 40 41 42 42 44 48 55 59 55 50 64 63 55 53 51 50 47 40 47 39 38 32 28 28 27 25
63 58 54 49 49 59 56 55 55 55 54 53 50 48 48 45 42 42 44 42 34 32 37 41 41 36 36 37 40 41 44 44 44 45 47 53 55 51 55 62 60 52 52 49 47 48 49 45 41 36 33 31 29 28
53 64 58 59 58 60 57 56 57 57 55 55 51 48 46 45 43 43 41 41 41 39 37 40 40 35 34 35 38 40 43 45 46 48 49 50 54 52 59 54 52 56 52 51 51 53 52 45 45 42 38 36 31 30
53 53 54 56 58 62 60 57 57 58 55 55 51 48 44 44 42 39 39 38 38 38 39 39 37 35 33 36 38 41 44 45 46 48 50 51 52 56 61 47 44 56 54 52 50 53 50 48 51 47 45 40 37 34
55 58 51 50 53 46 52 55 54 55 56 54 50 46 46 45 40 38 37 37 37 38 38 34 35 37 35 36 37 39 43 47 46 46 49 55 60 61 45 45 46 46 55 49 48 52 54 53 54 52 48 45 43 39
62 46 54 53 53 48 50 48 47 47 48 46 45 44 43 43 40 38 36 38 39 37 34 32 36 37 35 37 38 39 43 49 49 46 49 54 57 48 40 41 45 41 50 56 51 52 52 54 52 50 50 51 49 43
62 54 49 55 55 53 55 52 48 42 37 37 40 42 40 37 35 34 35 36 37 35 33 35 37 35 35 36 37 38 41 47 49 48 51 53 48 41 51 49 37 40 44 52 59 50 52 54 53 54 53 54 52 49
56 61 56 53 53 54 53 53 51 44 41 39 40 38 34 33 32 34 35 36 32 32 32 35 36 37 37 34 35 39 42 47 47 47 48 46 40 45 52 53 50 42 44 46 59 61 54 55 54 55 56 58 56 51
59 50 48 45 44 52 51 49 47 44 42 44 40 35 33 33 35 35 32 26 26 31 34 36 37 36 33 34 36 40 41 44 44 45 43 35 37 46 49 49 48 41 38 44 48 61 60 57 56 59 58 57 56 54
55 47 49 46 48 50 49 48 46 42 40 41 37 36 36 34 33 31 31 30 32 36 38 37 38 35 34 36 38 40 41 42 45 40 40 37 38 42 37 38 42 43 40 39 44 51 61 59 57 59 60 59 58 55
53 46 45 47 50 45 48 49 48 45 44 44 42 40 37 33 33 32 33 34 34 35 37 37 35 37 37 39 38 40 42 43 42 39 38 36 38 40 40 33 34 37 39 40 41 46 58 60 56 56 57 58 58 58
48 49 48 43 43 49 49 50 50 47 47 42 38 35 34 33 32 34 37 36 36 38 38 36 33 35 36 37 38 39 40 38 36 37 37 38 40 38 42 41 29 30 39 38 42 47 55 62 60 57 56 56 55 55
44 50 45 48 41 46 52 49 47 48 46 42 37 34 36 36 37 36 35 36 35 36 33 35 36 32 35 35 35 34 36 33 31 31 33 26 28 30 33 43 48 44 35 38 41 43 48 59 64 58 53 51 51 52
45 49 49 51 48 54 52 50 48 48 43 35 34 35 35 33 32 34 35 33 32 31 33 34 33 34 32 29 28 28 31 33 31 29 25 26 24 29 27 30 33 43 45 38 40 44 44 51 58 60 56 53 50 49
44 47 47 43 54 49 54 53 48 42 35 36 38 36 33 33 35 35 32 29 29 30 34 32 34 27 23 25 28 31 33 34 32 31 35 29 29 32 28 25 27 30 38 40 40 38 40 45 58 60 54 50 49 48
40 36 36 39 49 57 57 50 43 41 40 40 36 34 33 32 31 31 31 28 31 33 31 28 24 25 29 32 34 32 32 33 33 35 38 39 32 32 33 33 35 39 36 38 43 39 40 39 44 53 58 56 52 50
50 50 49 44 45 54 58 48 46 43 42 39 36 33 30 29 29 30 30 31 33 31 25 21 26 34 35 32 30 30 30 29 28 30 36 40 42 32 30 38 40 35 46 45 41 38 43 44 38 43 49 46 43 43
45 44 46 45 47 52 49 44 41 45 43 37 36 34 32 30 32 32 30 31 31 27 21 27 31 34 33 32 32 31 30 32 31 30 34 36 40 42 43 40 46 35 35 41 43 41 45 42 41 39 41 51 47 40
48 37 47 47 44 38 41 47 47 45 41 37 37 36 32 32 35 33 32 29 24 21 28 28 29 30 28 29 30 29 28 27 29 34 33 34 36 49 51 49 44 41 37 36 38 43 47 44 42 40 38 37 45 52
58 54 52 44 38 41 39 36 42 42 41 39 35 32 30 31 34 34 29 27 25 28 31 30 28 30 29 27 28 29 27 25 24 27 34 35 32 34 46 54 52 51 54 52 47 42 38 39 42 44 42 42 36 43
49 57 53 46 52 52 50 46 39 38 38 39 36 33 30 30 31 30 27 30 34 32 31 32 32 30 30 29 29 27 27 26 26 26 27 32 37 35 35 41 49 50 51 55 56 53 44 41 34 43 44 44 40 38
52 47 46 44 40 40 41 40 40 41 38 34 34 32 29 31 30 28 24 26 29 32 31 32 32 30 32 31 31 31 31 30 30 29 29 29 31 36 39 39 39 46 53 53 56 59 56 46 37 40 43 47 44 44
54 53 47 43 43 40 39 37 36 35 34 33 30 30 32 33 29 27 28 26 26 27 27 27 27 27 29 31 31 31 31 30 30 29 29 30 32 33 34 38 40 42 43 47 57 63 61 57 50 48 47 47 48 46
45 45 46 48 42 38 36 35 35 35 35 35 35 34 32 32 31 31 29 26 26 27 26 26 27 28 29 29 29 29 29 29 28 27 26 27 29 31 35 36 37 40 43 46 45 48 55 64 65 62 59 54 54 51
48 39 40 39 38 39 41 38 38 39 38 38 37 35 32 33 36 35 32 28 28 29 29 29 30 30 30 29 28 27 26 26 27 27 28 28 29 33 36 37 39 42 41 42 46 47 48 54 60 62 65 63 60 56
43 42 37 38 43 41 41 38 36 35 36 37 38 37 38 40 41 40 36 31 30 33 32 31 33 33 32 30 29 30 31 31 32 34 34 34 34 35 37 40 41 42 45 45 43 45 49 51 54 59 60 59 60 54
41 42 41 42 42 39 36 37 36 36 39 42 42 43 45 48 45 43 39 33 33 37 38 36 36 35 34 34 35 36 35 35 35 35 37 38 39 40 41 41 42 44 46 46 47 49 48 49 51 54 57 59 61 61
42 41 40 41 40 39 39 39 39 40 41 44 44 45 47 49 48 43 37 39 39 39 40 43 40 39 38 36 35 36 37 38 39 41 44 46 46 45 45 45 45 45 46 48 49 49 50 52 51 50 52 57 61 60
42 44 46 46 46 45 42 44 46 48 49 49 50 49 50 52 51 43 37 37 42 45 46 46 45 44 43 42 41 41 42 43 45 47 48 49 48 47 46 45 44 44 46 47 49 51 52 51 54 54 53 51 53 57

GFSWCAN_500_spd_276.txt.gz
Wind_Speed
92 91 82 79 77 64 65 65 62 59 56 53 53 51 48 45 43 48 49 45 46 44 43 42 42 43 43 42 39 37 39 39 40 43 45 46 49 50 50 47 46 45 44 45 45 45 37 31 26 29 29 28 26 24
88 81 85 81 77 74 73 75 71 67 62 60 57 57 55 52 50 51 52 51 51 50 46 44 44 45 45 46 43 41 37 37 40 41 44 47 48 50 50 49 45 47 47 45 45 41 40 39 31 31 30 30 28 26
73 67 80 81 83 80 81 79 77 71 67 67 62 62 60 58 56 56 57 57 56 55 51 50 46 47 47 47 46 43 38 38 41 41 42 48 50 50 51 51 50 47 48 50 48 43 41 41 37 35 33 33 31 29
86 71 59 61 65 66 73 69 73 75 72 71 69 66 64 61 61 60 60 58 60 56 53 48 47 47 46 48 46 45 41 39 39 42 44 44 48 51 51 52 51 48 48 50 50 44 42 43 44 41 38 35 31 32
74 85 81 78 72 61 63 63 66 68 69 71 70 68 66 64 63 62 61 59 60 57 51 47 48 46 44 44 45 45 41 41 39 43 45 44 45 50 50 51 50 48 44 51 49 45 45 45 49 48 42 39 35 33
45 54 55 60 66 58 62 66 63 63 64 64 65 65 64 64 64 62 60 58 57 50 51 49 48 42 43 41 39 41 43 41 41 42 43 42 42 47 50 48 45 47 42 48 53 46 49 48 49 49 48 45 40 36
64 61 56 57 57 59 61 62 61 60 62 62 62 62 63 64 64 61 60 54 54 52 51 49 49 41 34 35 38 38 39 41 41 42 44 42 40 46 50 48 34 44 51 44 55 53 47 49 50 50 50 50 43 40
65 64 69 61 60 55 52 56 60 57 57 58 58 59 61 61 59 56 56 54 53 53 51 54 47 38 34 33 35 37 38 39 42 42 40 41 42 45 51 34 34 38 46 47 43 55 57 48 52 51 53 53 49 46
71 58 62 51 55 49 55 58 59 59 58 57 57 57 58 57 56 54 53 52 51 52 53 48 39 35 38 38 37 37 37 39 41 44 41 42 40 42 36 36 36 40 42 45 48 52 56 57 53 53 54 55 52 50
76 73 69 58 58 50 45 50 54 56 55 54 53 54 55 53 51 48 48 49 50 48 46 38 34 34 37 37 38 37 37 38 39 38 40 39 32 33 40 41 43 45 49 46 48 54 53 57 58 53 54 55 56 54
67 80 70 66 54 46 44 47 48 52 50 50 49 52 54 52 50 48 49 50 47 45 39 34 33 32 34 37 37 37 37 36 35 35 38 32 29 35 38 41 45 47 49 49 45 49 52 51 63 60 57 58 58 58
64 68 75 65 57 52 44 46 48 48 46 46 47 46 47 49 49 48 47 46 41 38 35 30 30 31 34 37 35 33 33 34 34 33 33 28 31 35 39 41 44 47 48 49 49 43 43 47 51 64 61 60 61 60
62 67 71 69 60 51 54 45 45 47 45 46 47 45 45 43 43 42 38 34 30 26 27 29 30 31 32 33 31 31 32 32 33 33 31 27 31 36 38 37 40 44 47 48 52 52 46 43 44 56 63 60 60 61
71 60 57 55 52 44 49 48 47 47 47 49 48 46 41 39 36 32 30 29 27 27 27 27 26 27 28 29 29 30 31 34 33 31 30 34 32 37 39 36 36 37 42 45 46 49 50 42 44 46 59 61 59 60
57 55 55 58 43 45 44 46 48 47 49 50 46 41 36 31 29 28 28 26 27 27 26 24 25 25 27 28 29 31 33 33 30 31 36 37 34 37 40 37 37 34 37 40 41 47 49 45 39 44 49 61 61 58
64 64 48 47 50 47 45 46 48 47 49 49 44 35 32 31 28 27 27 27 28 27 25 26 26 25 27 30 31 34 33 33 31 34 37 37 37 38 39 35 36 35 38 36 37 43 46 48 43 42 46 51 61 59
57 59 55 46 48 48 48 49 51 51 52 48 40 34 32 32 32 31 29 28 28 28 26 26 27 28 28 31 33 31 31 33 32 37 38 37 35 36 35 34 34 33 35 39 40 42 42 44 45 42 47 47 53 58
57 57 54 51 48 49 51 52 50 47 46 43 38 36 34 34 33 30 29 28 28 29 29 29 29 28 31 30 26 29 33 33 38 40 41 38 34 35 32 30 27 25 30 43 37 34 37 41 40 39 41 47 51 57
55 58 57 50 45 45 51 50 48 48 44 41 38 36 38 35 32 32 30 30 30 30 30 27 27 29 23 26 37 39 38 38 38 37 35 33 33 31 33 33 29 33 32 35 44 46 43 41 35 37 42 45 50 53
51 46 42 51 49 50 44 43 49 48 42 40 39 40 40 38 36 33 33 33 31 29 27 26 19 22 31 41 44 40 39 37 36 33 30 33 35 34 31 42 35 34 33 36 34 36 37 36 37 37 40 40 42 49
45 52 47 44 55 49 44 39 42 44 42 40 39 41 39 37 34 34 33 31 30 28 26 20 21 34 40 38 37 36 35 32 31 31 30 30 34 34 32 32 38 33 42 35 34 31 26 26 26 31 40 35 35 36
37 35 46 45 50 49 42 44 44 42 46 45 39 38 38 37 36 36 33 32 32 25 24 23 30 34 34 33 33 32 31 31 33 33 32 29 32 33 30 30 34 36 37 40 36 35 32 31 27 28 27 29 35 37
42 39 36 41 45 46 43 45 50 51 50 44 41 42 41 40 40 38 37 34 28 25 27 29 31 33 32 31 30 29 30 30 31 32 30 28 30 32 34 30 32 33 40 42 38 36 37 24 19 26 28 33 31 31
43 40 43 47 44 43 41 42 48 52 51 48 45 45 41 41 40 38 35 32 26 29 27 29 32 31 30 30 30 30 32 32 31 29 27 27 26 27 29 34 34 33 32 46 46 42 41 33 23 20 25 29 34 34
42 39 42 43 42 42 42 46 50 53 47 42 40 43 41 37 37 36 32 24 27 30 29 30 31 32 32 32 33 34 33 33 31 28 28 26 25 25 25 28 33 35 32 30 36 40 48 47 36 32 34 29 27 36
39 40 35 36 40 40 39 38 38 45 49 44 43 41 38 37 36 34 27 27 28 26 27 29 33 36 36 35 36 38 39 36 33 31 30 30 30 29 27 27 28 29 32 32 31 31 34 40 44 39 41 43 35 34
47 37 39 36 39 34 37 39 36 36 35 35 35 34 38 40 39 33 30 28 26 26 27 28 29 30 31 32 33 33 32 32 33 32 31 31 30 26 24 24 25 27 28 30 33 34 34 35 40 46 45 46 45 39
51 48 37 38 44 42 39 35 37 36 36 36 35 35 36 36 34 32 31 29 28 29 31 31 31 31 30 29 27 26 26 26 28 30 30 29 29 28 23 20 22 24 26 27 29 31 34 36 37 38 40 45 49 48
49 45 43 43 39 38 37 35 34 34 34 36 39 42 42 40 38 36 31 30 31 30 30 32 33 31 30 28 27 27 25 25 26 28 27 25 25 29 30 30 31 31 30 29 29 31 32 34 37 39 40 40 38 42
48 47 48 46 42 39 38 40 37 35 34 34 35 35 36 38 38 36 33 32 30 31 33 36 37 32 30 31 32 31 30 29 27 27 27 30 32 32 31 31 32 34 35 35 34 34 33 34 35 37 40 41 42 41
45 45 48 47 44 45 46 45 42 38 38 38 39 37 37 39 39 38 37 37 35 33 35 39 39 38 35 33 32 33 33 32 31 32 33 33 34 34 34 35 38 40 41 42 41 40 39 39 37 38 39 40 42 43
44 46 47 42 32 32 35 36 39 43 41 41 41 42 41 40 39 38 38 41 41 41 39 40 41 42 41 38 37 35 35 36 36 37 37 34 34 36 37 39 42 44 45 45 45 45 45 43 41 42 40 41 43 45
41 41 41 41 45 42 37 39 40 41 41 41 41 41 43 44 43 39 36 37 38 39 39 41 43 44 46 45 44 41 40 39 42 44 43 43 40 40 42 44 46 48 49 51 50 48 47 47 47 45 44 44 43 46

GFSWCAN_500_spd_279.txt.gz
Wind_Speed
95 92 88 80 82 77 73 67 64 62 57 57 54 51 47 47 46 47 48 45 41 41 44 44 43 43 42 42 41 41 41 41 39 36 37 35 35 35 38 38 39 43 45 42 45 44 39 31 33 37 34 33 33 31
81 87 88 87 88 82 78 73 68 70 68 65 61 58 53 53 52 50 51 49 46 46 46 47 48 45 45 46 45 44 44 43 43 41 40 37 37 35 36 37 37 42 44 47 46 49 43 34 35 40 40 36 35 32
82 71 72 79 84 84 81 81 82 74 69 69 68 63 57 55 57 55 54 54 52 51 51 49 49 50 50 48 48 45 43 45 45 43 42 42 44 36 35 35 35 37 42 48 48 42 44 38 36 40 40 38 38 35
101 87 78 72 69 71 73 74 82 83 76 78 72 70 66 58 61 65 60 60 58 57 55 54 53 52 52 52 50 48 45 45 46 46 46 47 46 42 35 33 35 36 38 43 44 45 44 42 40 43 45 41 42 39
79 74 80 79 80 75 70 69 68 71 77 79 77 75 70 66 68 69 66 64 62 60 59 56 57 55 55 55 52 48 46 45 46 48 50 52 49 40 38 37 35 33 32 38 44 47 50 48 45 46 47 48 46 43
60 61 63 66 70 71 69 67 64 58 59 69 76 76 70 67 69 70 66 66 64 63 62 59 57 55 55 54 51 47 46 45 46 48 50 51 44 42 42 39 34 32 34 35 40 48 54 50 51 49 50 49 49 49
50 51 55 55 60 62 63 67 71 71 63 61 56 68 66 67 68 68 69 67 66 64 62 60 58 57 54 51 48 47 46 46 46 48 50 48 40 41 41 40 30 38 36 36 38 45 51 53 51 55 55 52 52 50
57 59 59 55 63 59 58 60 62 65 71 63 59 60 64 66 62 59 58 60 61 59 59 60 60 55 48 46 48 47 46 47 48 47 46 42 42 42 44 37 35 37 37 36 38 44 48 51 55 47 56 56 55 53
63 67 65 61 53 53 57 64 65 59 60 62 62 64 65 63 59 57 56 56 57 59 60 58 56 52 48 47 48 49 49 49 49 45 41 42 44 42 38 39 40 42 43 39 40 45 50 51 51 57 49 59 59 56
60 74 66 57 62 54 54 58 58 55 50 57 60 64 65 58 56 56 55 56 58 58 59 56 52 49 47 45 46 48 50 51 50 45 44 45 44 41 41 41 43 42 44 45 42 41 45 48 50 54 52 49 61 59
51 78 69 61 67 63 57 58 52 57 55 54 54 57 58 56 55 56 56 56 56 55 53 50 49 44 44 43 43 46 43 43 45 43 39 39 39 41 42 43 42 44 46 44 44 42 42 46 50 53 53 53 52 61
47 64 83 66 67 64 60 60 47 51 46 44 47 48 52 53 54 54 55 54 51 49 47 43 42 39 41 41 40 40 40 39 40 39 40 39 40 41 40 41 42 43 48 44 44 46 45 46 49 52 53 50 55 53
50 63 73 77 68 70 60 54 48 45 39 32 38 46 48 52 53 49 46 45 43 37 34 37 40 40 40 41 40 39 40 39 37 35 34 35 36 39 42 43 40 42 45 44 44 46 46 46 49 50 52 50 51 55
52 63 74 65 66 68 72 59 47 45 39 39 38 42 47 50 47 42 36 35 36 39 41 40 41 40 38 36 37 37 36 35 33 31 29 32 36 39 42 42 41 42 42 42 42 44 47 45 47 49 51 50 47 52
49 57 69 67 59 55 59 52 49 47 41 37 41 41 42 41 39 37 35 34 36 37 38 38 36 33 32 33 33 32 33 33 27 25 28 31 33 36 38 39 40 42 42 42 43 41 44 44 45 47 48 51 51 46
41 45 73 67 56 51 48 51 49 49 46 42 38 37 38 38 36 33 32 33 33 34 36 35 33 31 31 31 30 30 28 23 24 26 28 30 31 34 34 36 39 39 38 38 41 39 41 41 43 44 46 46 45 43
35 44 73 62 54 52 52 58 51 47 46 42 37 36 36 36 32 33 32 30 32 31 30 29 28 28 29 29 26 24 23 24 23 22 26 28 30 32 36 40 40 38 38 35 36 34 38 39 39 40 42 45 42 42
44 49 62 47 57 53 50 51 49 44 44 41 36 35 36 35 33 32 33 33 31 26 26 27 27 27 25 22 22 23 22 21 21 27 33 33 35 35 36 41 38 38 35 32 34 33 33 38 39 38 40 40 41 43
26 53 58 50 47 44 47 53 47 44 42 38 37 38 39 38 35 33 32 31 29 28 27 26 26 22 20 22 23 22 22 23 28 33 33 33 37 37 38 40 34 30 29 30 32 33 33 34 40 37 41 37 36 39
40 50 52 52 52 51 52 52 48 44 42 39 39 39 41 40 36 33 31 31 30 29 28 25 18 21 23 22 22 21 23 28 31 33 34 39 41 39 37 36 32 29 29 32 37 39 37 35 32 41 40 36 34 34
48 51 46 44 41 37 39 43 44 46 42 41 41 42 41 37 36 36 35 35 33 29 23 19 22 22 22 23 21 23 29 32 30 35 39 37 36 37 36 35 32 28 26 27 35 41 36 33 33 26 34 37 36 33
51 51 49 47 43 39 38 40 40 39 40 41 42 41 38 38 36 34 34 36 33 25 21 22 24 26 25 23 23 27 33 39 36 37 37 34 31 34 34 33 31 30 28 26 27 36 39 36 34 30 25 28 29 26
46 47 48 50 49 46 43 39 38 42 42 41 42 41 40 36 34 35 36 31 27 24 25 25 25 26 26 25 28 32 37 38 36 35 33 32 31 29 27 27 27 28 27 27 25 23 25 31 35 33 26 25 24 30
52 48 46 50 56 52 48 42 40 37 34 38 40 43 40 36 32 34 30 24 23 27 27 26 27 27 27 28 30 34 36 35 34 34 33 30 31 29 26 24 23 24 25 25 27 27 24 23 31 33 34 28 23 19
29 34 47 50 49 46 44 42 42 42 36 39 42 40 38 35 36 32 27 26 28 31 31 30 29 27 28 29 31 31 31 33 35 34 33 34 32 28 25 24 24 24 24 23 21 24 26 24 22 30 38 36 30 25
26 28 28 27 33 41 32 37 38 38 38 39 45 43 41 40 38 34 30 32 36 35 33 31 29 28 28 28 27 29 33 35 35 34 35 33 30 27 25 26 26 24 21 20 19 20 21 22 21 21 22 36 42 33
31 30 27 26 28 30 35 37 34 36 39 40 43 47 47 44 42 38 34 35 33 34 34 32 30 29 28 27 27 29 30 29 30 31 28 25 23 22 23 24 23 23 21 17 16 17 18 20 23 24 24 25 27 34
34 33 34 29 29 30 32 40 36 31 36 41 43 46 47 44 37 34 35 36 36 35 33 31 32 30 28 29 31 31 30 28 28 28 25 23 22 21 21 21 21 18 18 22 24 23 21 21 21 23 25 27 27 27
39 36 34 35 33 36 36 33 38 35 35 36 38 40 43 44 41 38 40 40 37 35 35 33 31 30 33 34 35 33 29 26 27 26 24 22 21 22 22 21 19 21 24 24 23 22 21 22 23 25 26 27 29 32
37 39 40 40 37 38 36 35 34 31 32 34 35 38 38 37 41 43 39 36 37 36 35 35 35 35 37 37 35 31 29 27 28 28 27 26 25 25 24 25 27 28 28 27 27 27 27 27 28 27 26 28 31 31
37 37 37 39 41 43 44 45 45 43 41 38 35 32 33 35 37 36 34 36 38 38 39 39 38 38 38 34 32 33 34 35 32 30 31 32 30 31 33 33 32 31 30 29 30 31 31 32 34 33 31 30 30 32
38 40 38 40 42 44 44 43 43 44 43 41 38 39 40 38 37 37 36 38 39 40 39 39 39 41 41 38 37 36 36 38 38 35 34 32 31 34 36 37 38 38 36 35 35 35 36 37 37 38 41 41 37 34
36 38 39 40 39 43 45 47 45 45 46 46 45 44 42 41 38 34 33 34 38 41 39 38 38 41 42 41 39 37 37 39 40 41 39 37 41 42 41 40 42 43 44 44 43 42 41 40 40 42 43 44 45 44

GFSWCAN_500_spd_285.txt.gz
Wind_Speed
104 102 97 92 98 90 81 77 71 71 71 66 67 61 60 59 57 56 56 57 59 57 55 51 50 50 50 48 46 43 43 42 40 39 37 36 37 37 38 34 35 33 36 34 36 36 31 27 29 33 35 36 38 38
102 102 102 101 102 100 94 88 78 77 71 74 69 64 63 61 61 61 56 58 60 59 57 52 51 50 50 48 45 47 43 40 39 39 37 36 38 36 35 36 37 36 35 37 38 36 35 32 28 29 32 34 38 38
107 107 104 101 105 99 96 96 90 80 80 80 76 73 66 67 65 63 60 60 62 60 59 56 50 52 51 48 47 47 45 43 40 38 38 39 40 37 35 35 35 37 37 36 38 36 35 35 34 32 31 30 34 38
97 93 98 96 110 102 97 98 96 88 83 83 82 76 75 72 64 65 64 62 64 60 60 58 56 50 51 51 50 49 48 46 46 43 41 40 39 38 36 36 36 37 37 34 35 36 39 40 40 38 35 33 34 37
92 96 95 96 88 92 94 88 86 91 87 87 84 84 84 83 78 72 70 70 69 66 61 63 57 54 54 56 55 54 51 51 51 51 49 44 43 43 40 38 37 38 37 38 34 36 37 38 40 39 38 38 37 35
65 71 71 93 95 90 84 80 68 56 60 61 65 73 81 84 82 81 79 76 71 71 70 65 65 60 58 59 59 58 56 57 56 56 55 53 49 45 45 48 43 42 39 36 34 32 34 37 42 42 41 41 40 38
57 58 66 65 70 84 83 82 80 64 60 61 67 61 62 73 74 75 76 74 74 75 76 73 69 65 63 63 62 60 59 58 56 55 55 54 52 50 45 43 45 41 35 36 32 33 34 38 38 41 43 42 41 41
56 63 65 58 55 59 58 56 73 61 47 51 54 64 58 57 60 68 71 73 74 75 74 72 71 70 67 65 64 63 62 61 58 57 55 54 50 51 51 47 39 35 34 36 34 36 34 36 38 40 44 43 42 41
62 61 56 60 58 61 61 73 69 53 58 61 61 60 61 62 59 59 62 67 70 73 75 74 75 74 74 70 67 66 66 64 62 59 58 58 54 57 49 43 37 36 36 34 35 37 36 36 36 41 44 45 43 42
54 60 65 58 69 67 71 66 63 71 63 69 65 64 66 65 66 66 69 66 66 65 62 65 70 72 76 73 71 68 67 64 63 59 61 60 58 51 44 38 39 37 36 37 39 38 38 38 40 41 43 43 44 47
46 45 51 55 63 65 66 74 75 73 71 73 68 72 62 61 65 70 70 73 71 67 62 58 62 65 69 68 65 65 65 64 61 59 61 60 58 44 39 35 36 37 40 39 38 38 40 40 42 44 45 45 47 48
42 44 46 51 57 62 71 79 80 72 70 70 64 65 63 58 65 68 69 69 72 71 67 64 64 63 64 62 63 62 63 61 57 56 58 58 49 40 36 34 37 39 39 38 38 40 43 44 43 44 42 43 45 47
34 36 38 43 48 50 59 62 60 61 53 52 57 70 65 70 66 65 66 63 64 62 59 64 62 61 65 63 60 61 62 57 54 55 53 46 43 36 34 37 38 37 37 39 42 44 47 45 41 41 43 44 46 48
37 39 39 39 37 39 39 49 55 56 55 50 57 72 66 69 64 55 50 44 41 45 44 45 50 56 60 59 58 57 57 54 53 48 44 36 32 34 36 37 36 36 38 40 42 43 43 42 41 41 41 43 46 45
37 39 40 40 40 38 37 38 48 53 48 53 59 63 56 51 50 47 43 41 39 39 41 43 48 52 51 50 54 54 51 50 44 37 32 28 32 36 37 36 36 36 38 39 39 40 41 40 37 37 37 41 45 46
39 40 39 42 41 39 39 47 49 54 55 44 48 55 47 48 46 39 38 37 36 38 42 45 46 46 49 49 45 45 46 38 34 32 30 33 37 37 36 35 35 35 35 34 35 36 37 38 38 39 41 46 51 50
43 44 45 46 46 42 43 53 49 46 48 51 41 39 49 45 38 33 32 34 37 40 42 43 44 45 45 45 43 39 32 28 30 33 36 37 39 32 30 32 32 28 27 29 31 35 36 38 42 47 50 55 58 57
39 39 42 43 41 45 46 51 45 44 48 46 38 41 46 39 40 37 31 32 34 39 40 40 39 39 39 36 31 26 27 31 35 37 40 35 24 27 30 28 24 26 29 33 38 40 44 47 51 50 52 52 55 54
34 35 37 42 45 45 47 49 50 50 52 54 46 46 45 44 38 30 27 33 34 36 35 38 37 38 35 30 28 30 33 35 37 35 25 23 27 28 26 25 25 27 30 35 41 42 46 48 47 44 45 46 47 46
32 37 39 44 43 43 49 53 53 56 55 55 48 44 43 41 41 33 29 31 33 34 36 37 36 31 30 31 33 35 35 33 28 24 26 27 27 26 26 27 28 32 36 43 41 40 41 41 41 39 41 42 42 39
34 39 44 50 48 48 52 57 55 55 57 55 46 47 47 45 45 35 29 31 32 37 35 27 27 32 33 35 36 36 32 27 26 27 29 30 27 25 25 28 30 34 38 41 39 39 38 38 36 35 36 37 36 35
23 31 52 53 51 52 57 57 57 51 55 53 49 47 44 39 38 42 31 33 33 33 27 27 31 35 37 36 35 32 25 25 27 28 28 27 27 27 27 29 31 31 35 38 38 35 34 32 30 29 30 31 31 29
9 19 38 50 48 54 56 57 51 46 56 54 52 50 43 39 34 34 35 33 34 33 30 33 35 37 37 36 32 25 25 28 29 29 27 27 27 27 27 31 30 31 33 37 37 35 31 28 26 27 29 27 27 26
13 19 39 46 51 53 56 54 49 46 51 52 47 43 38 36 35 35 35 35 33 35 34 35 39 39 37 34 29 25 28 31 31 26 26 26 23 25 29 31 31 30 33 35 34 33 29 27 27 27 26 25 25 25
16 24 42 43 46 51 57 51 48 50 47 44 42 37 33 34 32 32 34 32 39 36 34 37 39 39 35 30 28 30 32 31 28 29 27 24 25 26 27 30 29 31 32 32 33 31 27 25 25 25 24 23 23 23
17 18 27 35 49 40 48 40 37 34 33 32 33 32 34 30 33 33 33 34 37 37 36 36 37 37 35 30 31 34 35 33 30 26 25 25 24 28 26 22 25 28 31 29 28 26 24 22 22 19 18 19 20 21
25 24 22 31 36 35 35 34 33 35 29 22 23 26 31 35 35 33 31 30 33 35 35 35 37 37 35 36 37 38 37 32 27 27 26 25 27 26 22 20 23 29 28 25 24 24 23 23 20 19 19 20 21 21
25 26 24 23 28 30 31 32 33 34 34 34 32 32 34 36 34 32 32 34 36 37 36 36 38 38 38 38 39 37 35 33 31 30 29 29 30 28 24 23 23 29 30 25 23 24 26 26 25 23 22 24 26 26
23 23 23 22 21 17 20 26 31 33 33 34 36 36 33 32 34 30 33 37 42 42 39 38 37 38 39 38 37 35 34 34 34 34 33 34 33 31 31 26 23 26 30 29 25 25 27 29 29 28 27 29 28 27
27 32 31 29 27 28 29 30 32 35 37 38 39 38 35 34 34 33 32 31 38 43 46 44 42 40 39 40 39 37 37 37 37 37 38 39 40 39 33 29 27 28 32 33 29 29 28 30 32 32 32 32 28 27
22 23 28 31 32 32 33 33 34 36 38 42 43 41 40 38 35 35 36 35 36 39 43 44 42 41 41 42 41 40 40 41 42 43 43 42 41 38 36 33 32 33 35 36 35 34 34 33 34 36 36 35 32 30
27 26 25 25 27 30 31 31 32 35 38 41 43 43 45 44 43 43 42 43 44 44 42 41 42 45 47 47 46 45 45 45 45 46 45 44 42 41 38 36 35 37 37 38 38 40 41 40 39 39 39 37 36 36
25 27 29 31 32 31 31 34 36 37 36 36 38 39 40 40 36 36 38 36 36 38 39 39 41 44 45 46 47 47 47 47 48 48 48 47 45 43 42 41 42 44 44 44 46 46 44 44 44 43 42 41 42 45

GFSWCAN_500_spd_288.txt.gz
Wind_Speed
96 95 96 93 87 84 82 80 77 75 77 77 76 75 74 75 76 75 73 71 69 65 60 59 59 56 57 57 55 54 50 51 51 50 47 43 45 41 42 39 38 38 38 36 37 40 39 35 33 31 32 28 28 29
104 102 104 102 100 94 93 85 83 81 80 80 77 73 70 72 74 74 71 69 67 64 61 60 58 59 58 59 57 56 53 49 50 51 48 46 44 45 39 41 38 41 39 38 40 38 35 35 35 33 33 32 32 30
96 103 96 96 93 100 99 93 92 90 83 79 78 75 71 71 72 70 66 67 67 66 61 59 54 58 59 59 58 55 53 49 48 47 47 47 47 43 41 37 38 42 38 39 39 36 35 36 36 35 35 35 35 33
116 94 86 83 85 98 99 101 98 102 95 86 84 78 77 74 72 72 68 70 66 67 67 62 58 58 57 59 59 58 56 52 52 50 49 51 49 44 43 41 42 42 39 39 35 33 37 39 40 41 38 36 37 38
94 101 105 94 93 89 92 88 94 99 95 94 86 82 84 87 87 81 80 78 75 74 71 67 57 61 59 58 58 58 58 58 53 52 52 52 52 50 48 48 48 42 45 44 36 34 36 38 40 41 40 39 41 42
70 79 81 102 101 90 81 77 88 93 82 82 84 87 92 91 93 90 85 84 83 78 78 72 64 61 63 59 60 59 59 62 63 57 55 55 53 54 54 53 46 48 48 42 38 40 35 36 40 41 42 46 44 40
59 58 58 62 82 106 103 88 87 83 70 74 76 86 93 89 87 86 87 83 80 79 78 78 71 67 64 64 65 64 64 63 64 63 62 58 56 56 54 52 48 49 48 46 40 38 39 40 42 45 46 44 41 39
49 59 59 57 56 59 77 83 92 82 74 62 63 56 64 74 78 80 75 77 78 76 75 77 77 75 70 69 67 67 71 70 68 69 67 63 60 59 59 51 48 46 41 45 42 41 42 41 43 44 45 43 37 38
49 62 56 58 61 59 62 66 74 92 87 70 56 58 61 66 67 67 64 59 59 69 72 74 73 71 70 69 68 71 73 76 76 72 71 71 66 66 56 51 56 45 47 48 47 46 46 43 41 42 40 40 39 41
53 56 57 49 48 53 48 54 54 64 71 73 68 61 70 65 59 63 67 62 63 64 63 67 69 70 70 72 74 77 78 76 74 72 72 72 70 67 64 61 54 54 51 49 44 44 43 42 43 43 42 43 43 45
50 56 60 53 46 46 46 53 53 53 59 60 71 75 71 70 66 68 70 70 66 62 56 55 60 65 68 69 72 75 77 78 76 72 74 72 65 72 69 62 54 56 51 43 46 44 43 45 46 47 44 42 42 43
44 51 52 46 47 47 43 50 53 65 62 63 68 73 72 67 67 70 69 68 68 65 54 48 56 63 63 64 64 64 66 69 72 72 72 69 67 69 61 57 51 51 44 45 46 45 45 43 44 45 44 42 43 45
50 53 46 46 46 41 45 55 56 62 56 66 59 65 70 73 72 68 67 59 62 59 61 62 62 61 60 59 62 66 66 65 64 63 60 59 62 59 57 50 48 45 40 43 44 44 42 41 40 41 42 40 42 44
43 47 50 47 44 40 42 57 56 56 50 56 48 53 58 66 69 62 60 55 52 49 43 48 51 52 54 55 58 63 62 64 67 67 58 54 52 50 45 44 42 41 40 41 42 40 40 41 41 41 41 41 43 43
38 39 41 40 42 43 44 44 53 50 49 51 51 46 50 45 47 49 45 44 43 43 46 45 50 51 51 53 55 56 59 66 67 64 59 54 49 46 41 38 37 38 38 38 37 38 39 39 39 39 39 40 41 40
34 36 37 36 37 40 42 42 42 41 43 43 42 44 45 42 40 32 37 44 46 49 46 48 49 47 47 47 45 45 46 49 50 44 46 45 44 43 35 35 37 35 35 35 35 35 35 34 34 34 34 37 41 43
35 35 36 38 39 41 42 41 41 40 41 47 54 47 46 41 36 37 34 37 42 44 45 47 45 46 47 44 40 43 41 39 36 36 37 39 38 34 34 33 33 33 33 33 29 26 27 29 29 31 35 39 43 48
32 34 36 38 40 42 43 44 46 47 46 43 51 49 40 37 38 43 37 37 36 39 40 44 46 45 44 37 33 35 34 36 37 31 32 33 29 29 31 32 32 30 26 23 22 23 25 28 34 39 44 48 53 58
36 38 40 42 42 44 45 45 48 48 47 49 47 55 52 42 43 41 40 37 34 35 37 40 42 39 39 36 33 34 33 30 30 31 28 27 27 29 30 30 23 21 21 22 22 23 26 31 39 44 48 52 54 55
44 44 44 43 45 48 51 54 53 53 52 51 50 50 51 47 47 45 41 35 37 34 29 35 38 39 36 30 32 31 26 29 27 27 28 30 29 29 25 20 21 22 23 24 23 24 26 31 39 42 42 44 43 41
36 35 34 35 39 44 44 46 45 46 47 45 45 47 52 46 44 43 44 41 42 36 25 26 31 34 30 31 31 32 31 32 30 28 29 28 25 21 21 21 22 23 23 25 26 24 30 33 37 41 39 37 38 40
30 32 33 38 40 36 38 39 39 40 40 40 46 50 52 50 44 40 42 44 38 27 21 23 28 30 28 33 36 34 34 35 31 29 28 25 20 21 21 23 23 22 24 23 26 29 30 37 37 38 37 36 37 38
27 27 29 36 42 42 45 43 40 40 42 43 47 52 46 48 47 40 46 41 34 29 23 20 28 33 33 34 37 37 36 35 32 28 24 23 22 23 24 24 23 24 24 25 26 29 33 35 34 33 33 33 32 34
17 23 31 33 37 51 55 51 46 42 39 45 48 47 42 45 44 45 43 41 38 32 28 26 31 35 35 35 36 36 34 30 28 25 23 23 25 26 25 25 24 23 22 23 25 28 30 32 32 32 30 28 28 30
21 26 32 35 40 36 35 54 49 40 40 42 44 42 39 41 43 45 47 44 32 28 30 33 37 36 34 32 34 34 30 27 26 26 25 27 27 26 27 26 23 22 22 23 25 26 27 30 32 28 24 24 26 25
18 18 24 33 41 35 26 36 30 33 32 35 37 34 31 32 39 44 44 30 29 33 34 38 38 36 35 36 33 30 28 29 31 31 29 29 30 29 26 24 23 22 24 21 23 26 25 28 28 24 22 23 23 23
16 17 22 33 35 33 25 22 22 26 28 28 28 31 27 29 36 42 33 25 28 31 34 39 38 37 37 36 36 35 33 33 35 34 33 33 32 27 26 25 24 26 23 18 23 26 23 24 26 24 22 24 25 24
8 11 13 18 27 35 26 24 16 20 24 21 16 16 21 24 30 26 20 18 24 29 33 37 38 37 36 35 35 35 33 36 37 34 34 35 34 29 28 27 27 29 24 21 23 21 22 21 25 26 25 24 27 27
10 8 12 2 13 21 27 33 34 29 25 30 29 23 15 18 18 21 24 25 29 30 32 34 37 39 38 35 36 37 37 37 38 37 37 38 37 32 32 33 31 31 28 28 28 23 22 21 23 24 27 29 28 28
15 14 14 14 9 14 16 16 18 22 23 22 25 26 23 24 26 27 28 29 30 32 34 35 36 37 37 37 38 38 39 40 41 40 40 41 40 40 39 35 33 33 34 34 34 32 28 26 26 27 27 30 31 30
16 16 18 20 20 20 22 22 20 18 17 20 22 25 28 31 33 33 33 33 32 33 34 35 36 37 37 37 37 39 40 42 43 43 43 42 40 39 40 39 38 38 37 37 37 36 36 35 33 33 33 33 34 35
16 16 19 22 23 22 20 18 18 18 19 20 23 26 27 30 32 32 32 34 34 32 32 34 37 40 42 43 42 42 43 43 44 45 47 46 44 42 42 41 42 42 41 41 42 42 41 39 37 36 37 37 38 38
22 23 22 21 21 21 22 23 23 22 23 24 25 28 31 32 35 36 37 38 40 40 39 41 42 41 43 44 45 44 45 46 46 46 48 47 47 46 47 47 47 46 45 45 46 46 43 42 41 41 42 43 44 44